sat.trackr.live / text

‹ back to catalog

STARLINK-35442

NORAD 66319 · 2025-253A

PAYLOAD ACTIVE UNKNOWN

§ Identity

Operator
Country
US
Launch date
2025-11-06
Launch site
AFETR
Launch vehicle
Mass (kg)
RCS (m²)

Purposes: comms

External: N2YO · Heavens-Above · Gunter

§ Orbital elements

Epoch: 2026-09-20T04:02:02.551776Z

Period
94.27 min
Inclination
42.9984°
Eccentricity
0.0001414
Mean motion
15.27587555 rev/d
Perigee alt
482.1 km
Apogee alt
484.0 km
Semi-major
6,861.2 km
B*
6.2553e-4
RAAN
194.5271°
Arg perigee
274.4440°
Mean anomaly
85.6250°
Rev number
4,998

§ Raw data

STARLINK-354421 66319U 25253A   26263.16808509  .00016995  00000+0  62553-3 0  99912 66319  42.9984 194.5271 0001414 274.4440  85.6250 15.27587555 49983

JSON: /api/v1/satellites/66319 · /tle

For live sub-satellite position, see the globe view (requires WebGL).

§ Visibility from observer

Set your observer location to see the next 7 days of passes ≥ 10°. The values pass through the URL so the page stays shareable.

No JS? Fill the form by hand. The geolocation button needs JavaScript.